When you browse on this site, cookies collect data to enhance your experience and personalize the content and advertising you see.
Visit our Privacy Policy to learn more. By continuing to use the site, you agree to this use of cookies and data.
  • en Belgique
  • Liste des pays
  • À 7 jours
  • Température de l'eau
  • Carte satellitaire
  • Carte météo
  • Widgets météo
  • user-avatar
    Se connecter

    Météo par heure à Darwin

    Ce jour, 19 Décembre, Mercredi

    Heure Température Précipitation Vent Pression Humidité
    00:00 +30°C° 0.4 mm 3 m/s 757 mmHg 82%
    01:00 +30°C° 0.6 mm 3 m/s 757 mmHg 83%
    02:00 +30°C° 0.6 mm 3 m/s 757 mmHg 84%
    03:00 +29°C° 0 mm 2 m/s 756 mmHg 82%
    04:00 +29°C° 0 mm 3 m/s 756 mmHg 83%
    05:00 +29°C° 0 mm 3 m/s 756 mmHg 83%
    06:00 +29°C° 0 mm 4 m/s 756 mmHg 83%
    07:00 +30°C° 0 mm 4 m/s 756 mmHg 77%
    08:00 +33°C° 0 mm 4 m/s 756 mmHg 72%
    09:00 +35°C° 0 mm 3 m/s 757 mmHg 67%
    10:00 +36°C° 0 mm 4 m/s 756 mmHg 61%
    11:00 +37°C° 0 mm 4 m/s 756 mmHg 54%
    12:00 +40°C° 0 mm 5 m/s 756 mmHg 47%
    13:00 +39°C° 0 mm 5 m/s 755 mmHg 49%
    14:00 +39°C° 0 mm 6 m/s 755 mmHg 50%
    15:00 +39°C° 0 mm 6 m/s 754 mmHg 51%
    16:00 +38°C° 0 mm 6 m/s 754 mmHg 56%
    17:00 +35°C° 0 mm 6 m/s 754 mmHg 61%
    18:00 +34°C° 0 mm 6 m/s 754 mmHg 67%
    19:00 +34°C° 0 mm 5 m/s 755 mmHg 71%
    20:00 +33°C° 0 mm 5 m/s 755 mmHg 75%
    21:00 +32°C° 0 mm 5 m/s 755 mmHg 79%
    22:00 +32°C° 0 mm 5 m/s 755 mmHg 81%
    23:00 +32°C° 0 mm 4 m/s 755 mmHg 83%

    Demain, 20 Décembre, Jeudi

    Heure Température Précipitation Vent Pression Humidité
    00:00 +30°C° 0 mm 4 m/s 755 mmHg 84%
    01:00 +30°C° 0 mm 4 m/s 755 mmHg 85%
    02:00 +30°C° 0 mm 4 m/s 754 mmHg 86%
    03:00 +30°C° 0 mm 4 m/s 754 mmHg 87%
    04:00 +30°C° 0 mm 4 m/s 754 mmHg 86%
    05:00 +30°C° 0 mm 4 m/s 755 mmHg 86%
    06:00 +30°C° 0 mm 4 m/s 755 mmHg 85%
    07:00 +32°C° 0 mm 4 m/s 755 mmHg 80%
    08:00 +33°C° 0 mm 4 m/s 755 mmHg 74%
    09:00 +34°C° 0 mm 4 m/s 756 mmHg 69%
    10:00 +36°C° 0 mm 5 m/s 755 mmHg 63%
    11:00 +37°C° 0 mm 5 m/s 755 mmHg 57%
    12:00 +40°C° 0 mm 5 m/s 754 mmHg 51%
    13:00 +39°C° 0 mm 5 m/s 754 mmHg 53%
    14:00 +39°C° 0 mm 6 m/s 753 mmHg 55%
    15:00 +38°C° 0 mm 6 m/s 752 mmHg 56%
    16:00 +36°C° 0.2 mm 6 m/s 753 mmHg 62%
    17:00 +35°C° 0.2 mm 6 m/s 753 mmHg 67%
    18:00 +34°C° 0.2 mm 6 m/s 753 mmHg 73%
    19:00 +33°C° 0.4 mm 5 m/s 753 mmHg 76%
    20:00 +32°C° 0.4 mm 4 m/s 754 mmHg 80%
    21:00 +31°C° 0.4 mm 3 m/s 754 mmHg 84%
    22:00 +30°C° 1.8 mm 3 m/s 754 mmHg 85%
    23:00 +30°C° 1.8 mm 3 m/s 754 mmHg 86%

    Après-demain, 21 Décembre, Vendredi

    Heure Température Précipitation Vent Pression Humidité
    00:00 +29°C° 1.8 mm 3 m/s 754 mmHg 87%
    01:00 +29°C° 0.9 mm 4 m/s 754 mmHg 87%
    02:00 +29°C° 0.9 mm 4 m/s 753 mmHg 87%
    03:00 +29°C° 0.9 mm 4 m/s 753 mmHg 88%
    04:00 +29°C° 0 mm 4 m/s 753 mmHg 88%
    05:00 +29°C° 0 mm 4 m/s 753 mmHg 88%
    06:00 +30°C° 0 mm 4 m/s 753 mmHg 88%
    07:00 +32°C° 0.9 mm 4 m/s 754 mmHg 83%
    08:00 +33°C° 0.9 mm 4 m/s 754 mmHg 79%
    09:00 +34°C° 0.9 mm 4 m/s 754 mmHg 74%
    10:00 +35°C° 0.7 mm 4 m/s 754 mmHg 67%
    11:00 +36°C° 0.7 mm 4 m/s 754 mmHg 61%
    12:00 +37°C° 0.7 mm 4 m/s 754 mmHg 55%
    13:00 +37°C° 0.7 mm 4 m/s 753 mmHg 56%
    14:00 +37°C° 0.7 mm 4 m/s 753 mmHg 58%
    15:00 +36°C° 0.7 mm 4 m/s 752 mmHg 59%
    16:00 +35°C° 0.7 mm 4 m/s 752 mmHg 63%
    17:00 +35°C° 0.7 mm 4 m/s 753 mmHg 66%
    18:00 +34°C° 0.7 mm 4 m/s 753 mmHg 70%
    19:00 +33°C° 0.2 mm 3 m/s 754 mmHg 73%
    20:00 +31°C° 0.2 mm 3 m/s 754 mmHg 76%
    21:00 +31°C° 0.2 mm 3 m/s 755 mmHg 79%
    22:00 +31°C° 0 mm 3 m/s 754 mmHg 79%
    23:00 +30°C° 0 mm 2 m/s 754 mmHg 80%

    22 Décembre, Samedi

    Heure Température Précipitation Vent Pression Humidité
    00:00 +30°C° 0 mm 2 m/s 754 mmHg 81%
    01:00 +30°C° 0 mm 2 m/s 754 mmHg 82%
    02:00 +30°C° 0 mm 2 m/s 753 mmHg 83%
    03:00 +30°C° 0 mm 1 m/s 753 mmHg 83%
    04:00 +29°C° 0 mm 1 m/s 753 mmHg 84%
    05:00 +29°C° 0 mm 1 m/s 754 mmHg 85%
    06:00 +29°C° 0 mm 1 m/s 754 mmHg 86%
    07:00 +29°C° 0.1 mm 0 m/s 754 mmHg 77%
    08:00 +31°C° 0.1 mm 0 m/s 755 mmHg 68%
    09:00 +33°C° 0.1 mm 0 m/s 755 mmHg 60%
    10:00 +36°C° 0.1 mm 1 m/s 755 mmHg 56%
    11:00 +38°C° 0.1 mm 2 m/s 755 mmHg 52%
    12:00 +38°C° 0.1 mm 3 m/s 754 mmHg 48%
    13:00 +38°C° 0.3 mm 3 m/s 754 mmHg 49%
    14:00 +38°C° 0.3 mm 3 m/s 753 mmHg 50%
    15:00 +38°C° 0.3 mm 3 m/s 753 mmHg 51%
    16:00 +37°C° 0.5 mm 3 m/s 753 mmHg 54%
    17:00 +36°C° 0.5 mm 3 m/s 753 mmHg 57%
    18:00 +35°C° 0.5 mm 3 m/s 753 mmHg 60%
    19:00 +34°C° 0.1 mm 3 m/s 754 mmHg 65%
    20:00 +33°C° 0.1 mm 3 m/s 754 mmHg 70%
    21:00 +31°C° 0.1 mm 3 m/s 755 mmHg 76%
    22:00 +31°C° 0 mm 3 m/s 755 mmHg 77%
    23:00 +31°C° 0 mm 2 m/s 755 mmHg 78%

    23 Décembre, Dimanche

    Heure Température Précipitation Vent Pression Humidité
    00:00 +30°C° 0 mm 2 m/s 755 mmHg 80%
    01:00 +30°C° 0.5 mm 2 m/s 755 mmHg 82%
    02:00 +30°C° 0.5 mm 2 m/s 754 mmHg 84%
    03:00 +29°C° 0.5 mm 2 m/s 754 mmHg 86%
    04:00 +29°C° 0 mm 2 m/s 754 mmHg 86%
    05:00 +29°C° 0 mm 3 m/s 754 mmHg 86%
    06:00 +29°C° 0 mm 3 m/s 755 mmHg 86%
    07:00 +31°C° 0 mm 2 m/s 755 mmHg 80%
    08:00 +32°C° 0 mm 2 m/s 755 mmHg 73%
    09:00 +34°C° 0 mm 1 m/s 756 mmHg 66%
    10:00 +35°C° 0 mm 1 m/s 755 mmHg 60%
    11:00 +38°C° 0 mm 2 m/s 755 mmHg 54%
    12:00 +40°C° 0 mm 2 m/s 755 mmHg 49%
    13:00 +38°C° 0.8 mm 3 m/s 754 mmHg 53%
    14:00 +37°C° 0.8 mm 4 m/s 754 mmHg 58%
    15:00 +36°C° 0.8 mm 4 m/s 753 mmHg 63%
    16:00 +35°C° 0.2 mm 4 m/s 753 mmHg 67%
    17:00 +34°C° 0.2 mm 4 m/s 753 mmHg 70%
    18:00 +34°C° 0.2 mm 4 m/s 753 mmHg 73%
    19:00 +33°C° 0 mm 4 m/s 754 mmHg 76%
    20:00 +33°C° 0 mm 4 m/s 754 mmHg 78%
    21:00 +32°C° 0 mm 4 m/s 755 mmHg 80%
    22:00 +32°C° 0 mm 4 m/s 755 mmHg 81%
    23:00 +32°C° 0 mm 4 m/s 755 mmHg 82%

    24 Décembre, Lundi

    Heure Température Précipitation Vent Pression Humidité
    00:00 +32°C° 0 mm 4 m/s 754 mmHg 83%
    01:00 +30°C° 0 mm 3 m/s 754 mmHg 83%
    02:00 +30°C° 0 mm 3 m/s 754 mmHg 84%
    03:00 +30°C° 0 mm 3 m/s 754 mmHg 84%
    04:00 +30°C° 0 mm 3 m/s 754 mmHg 84%
    05:00 +30°C° 0 mm 3 m/s 754 mmHg 84%
    06:00 +30°C° 0 mm 3 m/s 755 mmHg 84%
    07:00 +31°C° 0 mm 3 m/s 755 mmHg 79%
    08:00 +34°C° 0 mm 3 m/s 755 mmHg 73%
    09:00 +35°C° 0 mm 3 m/s 755 mmHg 67%
    10:00 +36°C° 0 mm 3 m/s 755 mmHg 62%
    11:00 +38°C° 0 mm 4 m/s 755 mmHg 56%
    12:00 +40°C° 0 mm 4 m/s 754 mmHg 51%
    13:00 +40°C° 0.2 mm 4 m/s 754 mmHg 52%
    14:00 +39°C° 0.2 mm 5 m/s 753 mmHg 54%
    15:00 +39°C° 0.2 mm 5 m/s 752 mmHg 55%
    16:00 +37°C° 0 mm 5 m/s 753 mmHg 60%
    17:00 +35°C° 0 mm 5 m/s 753 mmHg 66%
    18:00 +34°C° 0 mm 5 m/s 753 mmHg 71%
    19:00 +34°C° 0 mm 5 m/s 753 mmHg 74%
    20:00 +33°C° 0 mm 5 m/s 753 mmHg 78%
    21:00 +32°C° 0 mm 4 m/s 754 mmHg 82%
    22:00 +32°C° 0 mm 4 m/s 754 mmHg 83%
    23:00 +32°C° 0 mm 4 m/s 754 mmHg 85%
    Voir plus